Location: Gisborne
(38.6530°S, 178.0040°E)
Time: 02:43:24
(UTC+13:00)

Cosmos 1763 Rocket - Pass Details

Date: 24 January 2019
Orbit: 733 x 780 km, 74.0° (Epoch: 23 February)

Event Time Altitude Azimuth Distance (km) Brightness Sun altitude
Rises 22:23:57 0° 206° (SSW) 3,261 8.1 -18.9°
Reaches altitude 10° 22:26:27 10° 212° (SSW) 2,319 7.2 -19.3°
Maximum altitude 22:31:24 44° 282° (WNW) 1,048 4.4 -19.9°
Enters shadow 22:34:29 21° 343° (NNW) 1,648 4.9 -20.3°
